Left ArrowRight Arrow

44.31136, -96.79839

Hourly Observations for June 25, 2020

Temp ( °F °C ) Dew Point ( °F °C ) Humidity (%) Winds ( mph kmh ) Pressure ( in mb ) Visibility ( mi km ) Precip ( " mm )
12:56 am 00:56 Clear 64 17.8 55 12.8 73 73 E 3 6 29.92 1013 10 16 0.00 0.00
1:56 am 01:56 Clear 62 16.7 53 11.7 73 73 SE 3 6 29.92 1013 10 16 0.00 0.00
2:56 am 02:56 Clear 58 14.4 53 11.7 84 84 ESE 3 6 29.92 1013 10 16 0.00 0.00
3:56 am 03:56 Clear 59 15 53 11.7 81 81 SE 5 7 29.92 1013 10 16 0.00 0.00
4:56 am 04:56 Clear 57 13.9 54 12.2 90 90 SE 8 13 29.93 1014 10 16 0.00 0.00
5:56 am 05:56 Sunny 57 13.9 53 11.7 87 87 SE 8 13 29.93 1014 10 16 0.00 0.00
6:56 am 06:56 Sunny 63 17.2 56 13.3 78 78 SSE 9 15 29.92 1013 10 16 0.00 0.00
7:56 am 07:56 Sunny 67 19.4 57 13.9 71 71 S 10 17 29.92 1013 10 16 0.00 0.00
8:56 am 08:56 Sunny 72 22.2 59 15 64 64 SSW 9 15 29.93 1013 10 16 0.00 0.00
9:56 am 09:56 Sunny 75 23.9 60 15.6 60 60 S 12 19 29.92 1013 10 16 0.00 0.00
10:56 am 10:56 Sunny 79 26.1 59 15 50 50 undefined N/A 29.91 1013 10 16 0.00 0.00
11:56 am 11:56 Mostly Sunny 80 26.7 58 14.4 47 47 S 12 19 29.91 1013 10 16 0.00 0.00
12:56 pm 12:56 Sunny 83 28.3 59 15 44 44 S 17 28 29.89 1012 10 16 0.00 0.00
1:56 pm 13:56 Sunny 84 28.9 58 14.4 41 41 SSE 14 22 29.87 1012 10 16 0.00 0.00
2:56 pm 14:56 Sunny 85 29.4 58 14.4 40 40 S 17 28 29.87 1012 10 16 0.00 0.00
3:56 pm 15:56 Sunny 84 28.9 60 15.6 44 44 S 16 26 29.85 1011 10 16 0.00 0.00
4:56 pm 16:56 Sunny 81 27.2 60 15.6 49 49 S 9 15 29.86 1011 10 16 0.00 0.00
5:34 pm 17:34 Cloudy with Nearby Thunderstorms 81 27 61 16 51 51 Calm 29.78 1008 10 16 0.00 0.00
5:48 pm 17:48 Cloudy with Strong Thunderstorms 66 19 63 17 88 88 NW 35 56 29.87 1011 2 3 0.15 3.81
5:52 pm 17:52 Cloudy with Strong Thunderstorms 64 18 63 17 94 94 NW 30 48 29.90 1013 1 2 0.26 6.60
5:56 pm 17:56 Cloudy with Strong Thunderstorms 64 17.8 62 16.7 93 93 NNW 23 37 29.97 1015 1 2 0.31 7.87
6:00 pm 18:00 Cloudy with Strong Thunderstorms 64 18 63 17 94 94 NW 14 22 29.90 1013 2 3 0.03 0.76
6:08 pm 18:08 Cloudy with Strong Thunderstorms 64 18 63 17 94 94 NNW 10 17 29.90 1013 3 4 0.18 4.57
6:12 pm 18:12 Cloudy with Strong Thunderstorms 64 18 63 17 94 94 NNW 9 15 29.91 1013 3 5 0.24 6.10
6:43 pm 18:43 Cloudy with Nearby Thunderstorms 64 18 63 17 94 94 E 6 9 29.90 1013 7 11 0.48 12.19
6:56 pm 18:56 Cloudy with Nearby Thunderstorms 65 18.3 62 16.7 90 90 E 5 7 29.97 1015 6 10 0.50 12.70
7:04 pm 19:04 Cloudy with Rain 64 18 63 17 94 94 E 6 9 29.90 1013 3 5 0.03 0.76
7:11 pm 19:11 Cloudy with Rain 64 18 63 17 94 94 ENE 5 7 29.88 1012 3 4 0.06 1.52
7:15 pm 19:15 Cloudy with Nearby Thunderstorms 64 18 63 17 94 94 E 5 7 29.88 1012 3 5 0.07 1.78
7:19 pm 19:19 Cloudy with Nearby Thunderstorms 64 18 63 17 94 94 E 8 13 29.87 1012 5 8 0.08 2.03
7:56 pm 19:56 Cloudy with Light Rain 66 18.9 64 17.8 93 93 SE 24 39 29.81 1009 10 16 0.11 2.79
8:14 pm 20:14 Cloudy with Light Rain 64 18 63 17 94 94 SE 25 41 29.79 1009 10 16 0.00 0.00
8:56 pm 20:56 Partly Cloudy with Light Rain 66 18.9 61 16.1 84 84 SSE 16 26 29.85 1011 10 16 0.00 0.00
9:56 pm 21:56 Partly Cloudy 66 18.9 62 16.7 87 87 SE 14 22 29.85 1011 10 16 0.01 0.25
10:56 pm 22:56 Mostly Cloudy with Light Rain 66 18.9 62 16.7 87 87 S 6 9 29.86 1011 10 16 0.00 0.00
11:56 pm 23:56 Mostly Cloudy with Light Rain 66 18.9 63 17.2 90 90 WNW 3 6 29.88 1012 10 16 0.00 0.00

Powered by Vaisala Xweather